^^
Saratoga-Weather Station Historical Data
Daily Summary for January 14, 2020 Units:  Metric    English   Both
Daily Weekly Monthly Yearly Custom
  High: Low: Average:
Temperature: 9.9 °C 5.7 °C 7.6 °C
Dew Point: 6.7 °C 4.5 °C 5.6 °C
Humidity: 94% 77% 87%
Wind Speed: 22.7km/h 0km/h 4.9km/h
Wind Gust: 27.4km/h - -
Wind- - West
Pressure: 1025.4 hPa 1008.5 hPa -
Precipitation: 0.2 mm    
Historical Graphs
 
 
Tabular Data for January 14, 2020
Time Temperature Dew Point Pressure Wind Wind Speed Wind Gust Humidity Rainfall Rate (Hourly) solar
00:03 7.2 °C 5.3 °C 1008.5 hPa West 20.9 km/h 20.9 km/h 88% 0.0 mm 0 W/m2
00:08 7.2 °C 5.5 °C 1008.5 hPa North 7.9 km/h 25.7 km/h 89% 0.0 mm 0 W/m2
00:13 7.2 °C 5.5 °C 1008.8 hPa WSW 7.9 km/h 19.3 km/h 89% 0.0 mm 0 W/m2
00:18 7.2 °C 5.5 °C 1009.1 hPa NW 16.3 km/h 22.5 km/h 89% 0.0 mm 0 W/m2
00:23 7.2 °C 5.5 °C 1008.8 hPa West 6.4 km/h 17.7 km/h 89% 0.0 mm 0 W/m2
00:28 7.2 °C 5.5 °C 1009.1 hPa NNW 6.4 km/h 22.5 km/h 89% 0.0 mm 0 W/m2
00:33 7.2 °C 5.5 °C 1009.1 hPa West 4.7 km/h 22.5 km/h 89% 0.0 mm 0 W/m2
00:38 7.2 °C 5.5 °C 1009.5 hPa WNW 11.1 km/h 22.5 km/h 89% 0.0 mm 0 W/m2
00:43 7.1 °C 5.4 °C 1009.8 hPa WNW 13 km/h 22.5 km/h 89% 0.0 mm 0 W/m2
00:48 7.2 °C 5.5 °C 1009.8 hPa West 13 km/h 17.7 km/h 89% 0.0 mm 0 W/m2
00:53 7.2 °C 5.5 °C 1009.8 hPa West 9.7 km/h 16.1 km/h 89% 0.0 mm 0 W/m2
00:58 7.1 °C 5.4 °C 1010.2 hPa West 14.3 km/h 19.3 km/h 89% 0.0 mm 0 W/m2
01:03 7.1 °C 5.4 °C 1010.2 hPa West 13 km/h 20.9 km/h 89% 0.0 mm 0 W/m2
01:08 7.1 °C 5.2 °C 1010.2 hPa WSW 9.7 km/h 17.7 km/h 88% 0.0 mm 0 W/m2
01:13 7.1 °C 5.2 °C 1010.2 hPa West 11.1 km/h 16.1 km/h 88% 0.0 mm 0 W/m2
01:18 7 °C 5.1 °C 1010.5 hPa West 13 km/h 17.7 km/h 88% 0.0 mm 0 W/m2
01:23 6.9 °C 5.2 °C 1010.8 hPa NW 16.3 km/h 25.7 km/h 89% 0.0 mm 0 W/m2
01:28 6.9 °C 5.2 °C 1010.8 hPa WNW 6.4 km/h 17.7 km/h 89% 0.0 mm 0 W/m2
01:33 6.9 °C 5.4 °C 1010.8 hPa SW 13 km/h 27.4 km/h 90% 0.0 mm 0 W/m2
01:38 6.9 °C 5.4 °C 1010.8 hPa West 6.4 km/h 22.5 km/h 90% 0.0 mm 0 W/m2
01:43 6.9 °C 5.4 °C 1011.2 hPa West 11.1 km/h 14.5 km/h 90% 0.0 mm 0 W/m2
01:48 6.9 °C 5.4 °C 1011.2 hPa WNW 11.1 km/h 17.7 km/h 90% 0.0 mm 0 W/m2
01:53 6.9 °C 5.4 °C 1011.5 hPa WSW 13 km/h 20.9 km/h 90% 0.0 mm 0 W/m2
01:59 7 °C 5.5 °C 1011.5 hPa WSW 16.3 km/h 19.3 km/h 90% 0.0 mm 0 W/m2
02:04 7.1 °C 5.6 °C 1011.9 hPa West 16.3 km/h 25.7 km/h 90% 0.0 mm 0 W/m2
02:09 7.1 °C 5.6 °C 1011.9 hPa West 6.4 km/h 16.1 km/h 90% 0.0 mm 0 W/m2
02:14 7.1 °C 5.6 °C 1011.9 hPa West 11.1 km/h 19.3 km/h 90% 0.0 mm 0 W/m2
02:19 7 °C 5.5 °C 1012.2 hPa NW 6.4 km/h 20.9 km/h 90% 0.0 mm 0 W/m2
02:24 7.1 °C 5.6 °C 1012.2 hPa West 9.7 km/h 17.7 km/h 90% 0.0 mm 0 W/m2
02:29 7.1 °C 5.6 °C 1012.5 hPa WNW 7.9 km/h 20.9 km/h 90% 0.0 mm 0 W/m2
02:34 7 °C 5.5 °C 1012.5 hPa NW 13 km/h 12.9 km/h 90% 0.0 mm 0 W/m2
02:39 7 °C 5.5 °C 1012.9 hPa SW 6.4 km/h 19.3 km/h 90% 0.0 mm 0 W/m2
02:44 7 °C 5.5 °C 1012.9 hPa WSW 6.4 km/h 12.9 km/h 90% 0.0 mm 0 W/m2
02:49 7 °C 5.5 °C 1012.9 hPa West 11.1 km/h 12.9 km/h 90% 0.0 mm 0 W/m2
02:54 7 °C 5.5 °C 1012.9 hPa NW 11.1 km/h 16.1 km/h 90% 0.0 mm 0 W/m2
02:59 7 °C 5.5 °C 1012.9 hPa West 16.3 km/h 19.3 km/h 90% 0.0 mm 0 W/m2
03:04 7 °C 5.5 °C 1012.9 hPa NW 13 km/h 14.5 km/h 90% 0.0 mm 0 W/m2
03:09 6.9 °C 5.4 °C 1013.2 hPa WSW 3.2 km/h 9.7 km/h 90% 0.0 mm 0 W/m2
03:14 6.9 °C 5.4 °C 1013.2 hPa West 11.1 km/h 11.3 km/h 90% 0.0 mm 0 W/m2
03:19 6.9 °C 5.4 °C 1013.2 hPa West 11.1 km/h 14.5 km/h 90% 0.0 mm 0 W/m2
03:24 6.9 °C 5.4 °C 1013.2 hPa West 17.7 km/h 17.7 km/h 90% 0.0 mm 0 W/m2
03:29 6.9 °C 5.4 °C 1013.2 hPa West 6.4 km/h 11.3 km/h 90% 0.0 mm 0 W/m2
03:34 6.9 °C 5.4 °C 1013.2 hPa WSW 13 km/h 17.7 km/h 90% 0.0 mm 0 W/m2
03:39 6.9 °C 5.4 °C 1013.2 hPa West 11.1 km/h 12.9 km/h 90% 0.0 mm 0 W/m2
03:44 6.9 °C 5.4 °C 1013.5 hPa West 14.3 km/h 14.5 km/h 90% 0.0 mm 0 W/m2
03:49 6.8 °C 5.3 °C 1013.2 hPa West 4.7 km/h 16.1 km/h 90% 0.0 mm 0 W/m2
03:54 6.8 °C 5.3 °C 1013.5 hPa WSW 3.2 km/h 17.7 km/h 90% 0.0 mm 0 W/m2
03:59 6.7 °C 5.2 °C 1013.5 hPa West 11.1 km/h 14.5 km/h 90% 0.0 mm 0 W/m2
04:04 6.7 °C 5.2 °C 1013.5 hPa WSW 14.3 km/h 19.3 km/h 90% 0.0 mm 0 W/m2
04:09 6.7 °C 5.2 °C 1013.9 hPa West 14.3 km/h 14.5 km/h 90% 0.0 mm 0 W/m2
04:14 6.8 °C 5.3 °C 1013.9 hPa West 11.1 km/h 19.3 km/h 90% 0.0 mm 0 W/m2
04:19 6.8 °C 5.3 °C 1014.2 hPa NNW 4.7 km/h 14.5 km/h 90% 0.0 mm 0 W/m2
04:24 6.8 °C 5.3 °C 1014.2 hPa NW 6.4 km/h 11.3 km/h 90% 0.0 mm 0 W/m2
04:29 6.8 °C 5.3 °C 1014.2 hPa South 9.7 km/h 14.5 km/h 90% 0.0 mm 0 W/m2
04:34 6.7 °C 5.2 °C 1014.2 hPa West 6.4 km/h 11.3 km/h 90% 0.0 mm 0 W/m2
04:39 6.7 °C 5.2 °C 1014.6 hPa WNW 7.9 km/h 11.3 km/h 90% 0.0 mm 0 W/m2
04:44 6.7 °C 5.2 °C 1014.6 hPa West 4.7 km/h 12.9 km/h 90% 0.0 mm 0 W/m2
04:49 6.7 °C 5.3 °C 1014.6 hPa West 9.7 km/h 19.3 km/h 91% 0.0 mm 0 W/m2
04:54 6.7 °C 5.2 °C 1014.6 hPa NW 4.7 km/h 9.7 km/h 90% 0.0 mm 0 W/m2
04:59 6.7 °C 5.3 °C 1014.9 hPa WNW 4.7 km/h 19.3 km/h 91% 0.0 mm 0 W/m2
05:04 6.7 °C 5.3 °C 1014.9 hPa WSW 11.1 km/h 11.3 km/h 91% 0.0 mm 0 W/m2
05:09 6.7 °C 5.3 °C 1014.9 hPa WSW 6.4 km/h 14.5 km/h 91% 0.0 mm 0 W/m2
05:14 6.6 °C 5.2 °C 1015.2 hPa SSW 6.4 km/h 12.9 km/h 91% 0.0 mm 0 W/m2
05:19 6.6 °C 5.2 °C 1015.2 hPa West 11.1 km/h 14.5 km/h 91% 0.0 mm 0 W/m2
05:24 6.6 °C 5.2 °C 1015.2 hPa WSW 4.7 km/h 8 km/h 91% 0.0 mm 0 W/m2
05:29 6.6 °C 5.2 °C 1015.6 hPa SW 6.4 km/h 8 km/h 91% 0.2 mm 0 W/m2
05:34 6.6 °C 5.2 °C 1015.6 hPa WNW 6.4 km/h 11.3 km/h 91% 0.2 mm 0 W/m2
05:39 6.6 °C 5.2 °C 1015.9 hPa WSW 22.7 km/h 22.5 km/h 91% 0.2 mm 0 W/m2
05:44 6.6 °C 5.2 °C 1015.9 hPa West 11.1 km/h 14.5 km/h 91% 0.2 mm 0 W/m2
05:49 6.6 °C 5.2 °C 1015.9 hPa WNW 17.7 km/h 19.3 km/h 91% 0.2 mm 0 W/m2
05:54 6.7 °C 5.3 °C 1015.9 hPa WSW 7.9 km/h 17.7 km/h 91% 0.2 mm 0 W/m2
05:59 6.6 °C 5.2 °C 1015.9 hPa WSW 13 km/h 12.9 km/h 91% 0.2 mm 0 W/m2
06:04 6.6 °C 5.2 °C 1016.3 hPa NNW 7.9 km/h 12.9 km/h 91% 0.2 mm 0 W/m2
06:09 6.5 °C 5 °C 1016.3 hPa WSW 11.1 km/h 17.7 km/h 90% 0.2 mm 0 W/m2
06:15 6.6 °C 5.1 °C 1016.3 hPa West 11.1 km/h 12.9 km/h 90% 0.2 mm 0 W/m2
06:20 6.6 °C 5.1 °C 1016.3 hPa West 14.3 km/h 19.3 km/h 90% 0.2 mm 0 W/m2
06:25 6.6 °C 5.1 °C 1016.6 hPa West 11.1 km/h 14.5 km/h 90% 0.2 mm 0 W/m2
06:30 6.6 °C 5.1 °C 1016.6 hPa WSW 6.4 km/h 17.7 km/h 90% 0.0 mm 0 W/m2
06:35 6.5 °C 5 °C 1016.6 hPa West 3.2 km/h 11.3 km/h 90% 0.0 mm 0 W/m2
06:40 6.4 °C 4.9 °C 1016.9 hPa West 4.7 km/h 16.1 km/h 90% 0.0 mm 0 W/m2
06:45 6.4 °C 4.9 °C 1016.9 hPa WNW 7.9 km/h 14.5 km/h 90% 0.0 mm 0 W/m2
06:50 6.4 °C 4.9 °C 1017.3 hPa West 1.4 km/h 4.8 km/h 90% 0.0 mm 0 W/m2
06:55 6.5 °C 5 °C 1017.3 hPa WSW 4.7 km/h 8 km/h 90% 0.0 mm 0 W/m2
07:00 6.4 °C 4.9 °C 1017.3 hPa SSW 6.4 km/h 9.7 km/h 90% 0.0 mm 0 W/m2
07:05 6.4 °C 4.9 °C 1017.3 hPa West 4.7 km/h 12.9 km/h 90% 0.0 mm 0 W/m2
07:10 6.4 °C 4.9 °C 1017.6 hPa WNW 4.7 km/h 11.3 km/h 90% 0.0 mm 0 W/m2
07:15 6.4 °C 4.9 °C 1017.6 hPa WSW 6.4 km/h 16.1 km/h 90% 0.0 mm 0 W/m2
07:20 6.4 °C 4.9 °C 1017.6 hPa WNW 4.7 km/h 8 km/h 90% 0.0 mm 0 W/m2
07:25 6.3 °C 4.9 °C 1017.6 hPa WNW 13 km/h 17.7 km/h 91% 0.0 mm 0 W/m2
07:30 6.3 °C 4.8 °C 1017.6 hPa WNW 6.4 km/h 6.4 km/h 90% 0.0 mm 0 W/m2
07:35 6.3 °C 4.8 °C 1018.0 hPa WSW 13 km/h 12.9 km/h 90% 0.0 mm 0 W/m2
07:40 6.2 °C 4.7 °C 1018.3 hPa West 11.1 km/h 12.9 km/h 90% 0.0 mm 0 W/m2
07:45 6.2 °C 4.7 °C 1018.3 hPa West 6.4 km/h 6.4 km/h 90% 0.0 mm 0 W/m2
07:50 6.2 °C 4.7 °C 1018.6 hPa WSW 7.9 km/h 12.9 km/h 90% 0.0 mm 5 W/m2
07:55 6.2 °C 4.7 °C 1018.6 hPa West 3.2 km/h 4.8 km/h 90% 0.0 mm 5 W/m2
08:00 6.2 °C 4.8 °C 1018.6 hPa WNW 3.2 km/h 14.5 km/h 91% 0.0 mm 7 W/m2
08:05 6.3 °C 4.9 °C 1018.6 hPa West 6.4 km/h 12.9 km/h 91% 0.0 mm 9 W/m2
08:10 6.3 °C 4.9 °C 1019.0 hPa WSW 3.2 km/h 14.5 km/h 91% 0.0 mm 9 W/m2
08:15 6.4 °C 4.9 °C 1019.0 hPa WNW 1.4 km/h 6.4 km/h 90% 0.0 mm 12 W/m2
08:20 6.4 °C 4.9 °C 1019.3 hPa South 1.4 km/h 6.4 km/h 90% 0.0 mm 16 W/m2
08:26 6.4 °C 4.9 °C 1019.6 hPa WSW 3.2 km/h 12.9 km/h 90% 0.0 mm 16 W/m2
08:31 6.4 °C 4.9 °C 1019.6 hPa SW 3.2 km/h 4.8 km/h 90% 0.0 mm 19 W/m2
08:36 6.5 °C 5 °C 1019.6 hPa SW 1.4 km/h 8 km/h 90% 0.0 mm 25 W/m2
08:41 6.6 °C 5.1 °C 1019.6 hPa West 1.4 km/h 4.8 km/h 90% 0.0 mm 28 W/m2
08:46 6.6 °C 5.2 °C 1020.0 hPa WSW 6.4 km/h 9.7 km/h 91% 0.0 mm 28 W/m2
08:51 6.6 °C 5.2 °C 1020.0 hPa WSW 1.4 km/h 3.2 km/h 91% 0.0 mm 35 W/m2
08:56 6.6 °C 5.2 °C 1020.0 hPa West 3.2 km/h 12.9 km/h 91% 0.0 mm 37 W/m2
09:01 6.7 °C 5.3 °C 1020.0 hPa West 3.2 km/h 6.4 km/h 91% 0.0 mm 47 W/m2
09:06 6.7 °C 5.3 °C 1020.3 hPa Calm   12.9 km/h 91% 0.0 mm 60 W/m2
09:11 6.7 °C 5.3 °C 1020.3 hPa West 1.4 km/h 9.7 km/h 91% 0.0 mm 62 W/m2
09:16 6.8 °C 5.3 °C 1020.7 hPa WNW 1.4 km/h 11.3 km/h 90% 0.0 mm 53 W/m2
09:21 6.8 °C 5.3 °C 1020.7 hPa SW 6.4 km/h 12.9 km/h 90% 0.0 mm 107 W/m2
09:26 6.9 °C 5.4 °C 1020.7 hPa West 6.4 km/h 9.7 km/h 90% 0.0 mm 77 W/m2
09:31 6.9 °C 5.4 °C 1020.7 hPa West 4.7 km/h 4.8 km/h 90% 0.0 mm 88 W/m2
09:36 7 °C 5.5 °C 1020.7 hPa SSW 3.2 km/h 6.4 km/h 90% 0.0 mm 67 W/m2
09:41 7.1 °C 5.6 °C 1021.0 hPa West 6.4 km/h 6.4 km/h 90% 0.0 mm 90 W/m2
09:46 7.1 °C 5.4 °C 1021.0 hPa NW 3.2 km/h 6.4 km/h 89% 0.0 mm 76 W/m2
09:51 7.2 °C 5.5 °C 1021.0 hPa WNW 3.2 km/h 12.9 km/h 89% 0.0 mm 63 W/m2
09:56 7.2 °C 5.5 °C 1021.0 hPa NW 3.2 km/h 3.2 km/h 89% 0.0 mm 62 W/m2
10:01 7.2 °C 5.5 °C 1021.0 hPa West 6.4 km/h 14.5 km/h 89% 0.0 mm 60 W/m2
10:06 7.2 °C 5.5 °C 1021.0 hPa NW 3.2 km/h 6.4 km/h 89% 0.0 mm 58 W/m2
10:12 7.2 °C 5.5 °C 1021.0 hPa WNW 1.4 km/h 4.8 km/h 89% 0.0 mm 63 W/m2
10:17 7.3 °C 5.6 °C 1021.0 hPa NW 1.4 km/h 6.4 km/h 89% 0.0 mm 91 W/m2
10:22 7.3 °C 5.6 °C 1021.0 hPa West 6.4 km/h 8 km/h 89% 0.0 mm 128 W/m2
10:27 7.4 °C 5.7 °C 1021.3 hPa Calm   3.2 km/h 89% 0.0 mm 123 W/m2
10:32 7.5 °C 5.6 °C 1021.3 hPa WNW 4.7 km/h 16.1 km/h 88% 0.0 mm 88 W/m2
10:37 7.6 °C 5.7 °C 1021.7 hPa West 11.1 km/h 17.7 km/h 88% 0.0 mm 105 W/m2
10:42 7.6 °C 5.7 °C 1021.7 hPa West 11.1 km/h 11.3 km/h 88% 0.0 mm 104 W/m2
10:47 7.7 °C 5.8 °C 1021.7 hPa SW 1.4 km/h 17.7 km/h 88% 0.0 mm 111 W/m2
10:52 7.7 °C 5.7 °C 1022.0 hPa WSW 6.4 km/h 8 km/h 87% 0.0 mm 109 W/m2
10:57 7.8 °C 5.8 °C 1022.0 hPa WNW 14.3 km/h 17.7 km/h 87% 0.0 mm 111 W/m2
11:02 7.8 °C 5.8 °C 1022.0 hPa WSW 4.7 km/h 9.7 km/h 87% 0.0 mm 98 W/m2
11:07 7.9 °C 5.9 °C 1022.0 hPa West 3.2 km/h 9.7 km/h 87% 0.0 mm 93 W/m2
11:12 7.9 °C 5.7 °C 1022.4 hPa West 4.7 km/h 11.3 km/h 86% 0.0 mm 100 W/m2
11:17 8.1 °C 5.7 °C 1022.4 hPa WNW 3.2 km/h 11.3 km/h 85% 0.0 mm 104 W/m2
11:22 8.1 °C 5.7 °C 1022.4 hPa WNW 3.2 km/h 6.4 km/h 85% 0.0 mm 125 W/m2
11:27 8.2 °C 6 °C 1022.4 hPa Calm   1.6 km/h 86% 0.0 mm 142 W/m2
11:32 8.2 °C 5.8 °C 1022.4 hPa WNW 3.2 km/h 9.7 km/h 85% 0.0 mm 109 W/m2
11:37 8.2 °C 5.8 °C 1022.4 hPa WNW 4.7 km/h 11.3 km/h 85% 0.0 mm 179 W/m2
11:42 8.3 °C 5.9 °C 1022.4 hPa West 6.4 km/h 12.9 km/h 85% 0.0 mm 213 W/m2
11:47 8.5 °C 6 °C 1022.4 hPa WSW 6.4 km/h 9.7 km/h 84% 0.0 mm 155 W/m2
11:52 8.6 °C 6 °C 1022.4 hPa SW 4.7 km/h 17.7 km/h 84% 0.0 mm 97 W/m2
11:57 8.6 °C 5.9 °C 1022.7 hPa West 11.1 km/h 16.1 km/h 83% 0.0 mm 220 W/m2
12:02 8.6 °C 5.9 °C 1022.4 hPa WNW 4.7 km/h 9.7 km/h 83% 0.0 mm 229 W/m2
12:08 8.7 °C 6 °C 1022.4 hPa WSW 13 km/h 17.7 km/h 83% 0.0 mm 107 W/m2
12:13 8.7 °C 5.8 °C 1022.4 hPa WNW 7.9 km/h 16.1 km/h 82% 0.0 mm 135 W/m2
12:18 8.8 °C 5.9 °C 1022.4 hPa WNW 11.1 km/h 17.7 km/h 82% 0.0 mm 455 W/m2
12:23 8.9 °C 5.8 °C 1022.4 hPa WSW 7.9 km/h 17.7 km/h 81% 0.0 mm 148 W/m2
12:28 9 °C 5.9 °C 1022.4 hPa West 4.7 km/h 16.1 km/h 81% 0.0 mm 186 W/m2
12:33 9 °C 5.9 °C 1022.4 hPa WNW 3.2 km/h 9.7 km/h 81% 0.0 mm 137 W/m2
12:38 9.1 °C 6 °C 1022.4 hPa WSW 3.2 km/h 14.5 km/h 81% 0.0 mm 272 W/m2
12:43 9.1 °C 6.2 °C 1022.4 hPa WNW 16.3 km/h 16.1 km/h 82% 0.0 mm 98 W/m2
12:48 9.1 °C 6 °C 1022.4 hPa WSW 7.9 km/h 11.3 km/h 81% 0.0 mm 120 W/m2
12:53 9.1 °C 6.2 °C 1022.4 hPa WSW 13 km/h 14.5 km/h 82% 0.0 mm 176 W/m2
12:58 9.1 °C 6.2 °C 1022.4 hPa West 9.7 km/h 12.9 km/h 82% 0.0 mm 91 W/m2
13:03 9.1 °C 6 °C 1022.4 hPa West 6.4 km/h 9.7 km/h 81% 0.0 mm 97 W/m2
13:08 9.1 °C 6 °C 1022.4 hPa SW 4.7 km/h 11.3 km/h 81% 0.0 mm 63 W/m2
13:13 9.1 °C 6 °C 1022.4 hPa Calm   4.8 km/h 81% 0.0 mm 135 W/m2
13:18 9.2 °C 6.1 °C 1022.4 hPa WNW 1.4 km/h 3.2 km/h 81% 0.0 mm 158 W/m2
13:23 9.3 °C 6.2 °C 1022.4 hPa NW 3.2 km/h 6.4 km/h 81% 0.0 mm 172 W/m2
13:28 9.4 °C 6.1 °C 1022.4 hPa WNW 9.7 km/h 11.3 km/h 80% 0.0 mm 232 W/m2
13:33 9.6 °C 6.1 °C 1022.4 hPa West 4.7 km/h 6.4 km/h 79% 0.0 mm 223 W/m2
13:38 9.8 °C 6.3 °C 1022.4 hPa WSW 3.2 km/h 17.7 km/h 79% 0.0 mm 141 W/m2
13:43 9.8 °C 6.3 °C 1022.4 hPa WNW 3.2 km/h 6.4 km/h 79% 0.0 mm 91 W/m2
13:48 9.7 °C 6 °C 1022.4 hPa WNW 7.9 km/h 17.7 km/h 78% 0.0 mm 58 W/m2
13:53 9.7 °C 5.9 °C 1022.4 hPa WSW 9.7 km/h 11.3 km/h 77% 0.0 mm 56 W/m2
13:58 9.6 °C 5.8 °C 1022.7 hPa WSW 6.4 km/h 14.5 km/h 77% 0.0 mm 84 W/m2
14:03 9.6 °C 6 °C 1022.7 hPa West 1.4 km/h 11.3 km/h 78% 0.0 mm 67 W/m2
14:08 9.6 °C 6 °C 1022.7 hPa WSW 4.7 km/h 14.5 km/h 78% 0.0 mm 63 W/m2
14:13 9.6 °C 6.1 °C 1022.7 hPa WSW 4.7 km/h 4.8 km/h 79% 0.0 mm 74 W/m2
14:18 9.6 °C 6.1 °C 1022.7 hPa WNW 3.2 km/h 8 km/h 79% 0.0 mm 62 W/m2
14:23 9.6 °C 6.1 °C 1022.4 hPa WNW 3.2 km/h 3.2 km/h 79% 0.0 mm 86 W/m2
14:28 9.6 °C 6.3 °C 1022.7 hPa WNW 3.2 km/h 4.8 km/h 80% 0.0 mm 121 W/m2
14:33 9.7 °C 6.4 °C 1022.7 hPa NW 4.7 km/h 12.9 km/h 80% 0.0 mm 84 W/m2
14:38 9.7 °C 6.4 °C 1022.7 hPa WSW 3.2 km/h 9.7 km/h 80% 0.0 mm 144 W/m2
14:43 9.7 °C 6.4 °C 1022.7 hPa West 4.7 km/h 4.8 km/h 80% 0.0 mm 183 W/m2
14:48 9.7 °C 6.4 °C 1022.7 hPa NW 4.7 km/h 9.7 km/h 80% 0.0 mm 127 W/m2
14:53 9.8 °C 6.5 °C 1022.7 hPa Calm   3.2 km/h 80% 0.0 mm 120 W/m2
14:58 9.8 °C 6.5 °C 1022.7 hPa SW 1.4 km/h 11.3 km/h 80% 0.0 mm 100 W/m2
15:03 9.8 °C 6.5 °C 1022.7 hPa West 3.2 km/h 3.2 km/h 80% 0.0 mm 70 W/m2
15:08 9.8 °C 6.5 °C 1022.7 hPa SSW 1.4 km/h 11.3 km/h 80% 0.0 mm 69 W/m2
15:13 9.8 °C 6.5 °C 1022.7 hPa Calm   1.6 km/h 80% 0.0 mm 67 W/m2
15:18 9.8 °C 6.5 °C 1022.7 hPa WNW 11.1 km/h 11.3 km/h 80% 0.0 mm 77 W/m2
15:23 9.8 °C 6.5 °C 1022.7 hPa WNW 1.4 km/h 9.7 km/h 80% 0.0 mm 121 W/m2
15:28 9.8 °C 6.5 °C 1022.7 hPa Calm   1.6 km/h 80% 0.0 mm 113 W/m2
15:33 9.8 °C 6.5 °C 1022.7 hPa WSW 1.4 km/h 3.2 km/h 80% 0.0 mm 83 W/m2
15:38 9.9 °C 6.6 °C 1022.7 hPa WSW 1.4 km/h 9.7 km/h 80% 0.0 mm 60 W/m2
15:43 9.9 °C 6.4 °C 1023.0 hPa Calm     79% 0.0 mm 84 W/m2
15:48 9.9 °C 6.4 °C 1023.0 hPa West 3.2 km/h 9.7 km/h 79% 0.0 mm 88 W/m2
15:53 9.9 °C 6.4 °C 1023.0 hPa West 6.4 km/h 6.4 km/h 79% 0.0 mm 76 W/m2
15:58 9.9 °C 6.4 °C 1023.0 hPa West 3.2 km/h 8 km/h 79% 0.0 mm 62 W/m2
16:03 9.9 °C 6.4 °C 1023.0 hPa Calm   3.2 km/h 79% 0.0 mm 62 W/m2
16:08 9.9 °C 6.4 °C 1023.0 hPa West 4.7 km/h 9.7 km/h 79% 0.0 mm 62 W/m2
16:13 9.9 °C 6.4 °C 1023.0 hPa SSW 3.2 km/h 4.8 km/h 79% 0.0 mm 54 W/m2
16:18 9.9 °C 6.4 °C 1023.4 hPa NNW 3.2 km/h 6.4 km/h 79% 0.0 mm 42 W/m2
16:23 9.9 °C 6.6 °C 1023.0 hPa Calm   4.8 km/h 80% 0.0 mm 39 W/m2
16:28 9.8 °C 6.5 °C 1023.4 hPa Calm   6.4 km/h 80% 0.0 mm 40 W/m2
16:33 9.8 °C 6.5 °C 1023.0 hPa SE 3.2 km/h 3.2 km/h 80% 0.0 mm 53 W/m2
16:38 9.8 °C 6.5 °C 1023.0 hPa WNW 3.2 km/h 6.4 km/h 80% 0.0 mm 39 W/m2
16:43 9.8 °C 6.5 °C 1023.0 hPa Calm   1.6 km/h 80% 0.0 mm 40 W/m2
16:48 9.8 °C 6.5 °C 1023.0 hPa Calm   3.2 km/h 80% 0.0 mm 39 W/m2
16:53 9.8 °C 6.7 °C 1023.4 hPa NNE 1.4 km/h 3.2 km/h 81% 0.0 mm 28 W/m2
16:58 9.8 °C 6.5 °C 1023.4 hPa West 1.4 km/h 3.2 km/h 80% 0.0 mm 26 W/m2
17:03 9.7 °C 6.4 °C 1023.4 hPa Calm   3.2 km/h 80% 0.0 mm 26 W/m2
17:08 9.7 °C 6.4 °C 1023.4 hPa WNW 6.4 km/h 11.3 km/h 80% 0.0 mm 23 W/m2
17:13 9.7 °C 6.4 °C 1023.4 hPa Calm   1.6 km/h 80% 0.0 mm 25 W/m2
17:18 9.7 °C 6.4 °C 1023.4 hPa Calm   9.7 km/h 80% 0.0 mm 25 W/m2
17:23 9.7 °C 6.4 °C 1023.4 hPa ESE 1.4 km/h 3.2 km/h 80% 0.0 mm 23 W/m2
17:28 9.7 °C 6.4 °C 1023.4 hPa WNW 3.2 km/h 9.7 km/h 80% 0.0 mm 19 W/m2
17:33 9.7 °C 6.4 °C 1023.4 hPa West 3.2 km/h 3.2 km/h 80% 0.0 mm 16 W/m2
17:38 9.6 °C 6.3 °C 1023.4 hPa Calm   1.6 km/h 80% 0.0 mm 11 W/m2
17:43 9.6 °C 6.3 °C 1023.4 hPa Calm     80% 0.0 mm 7 W/m2
17:48 9.5 °C 6.4 °C 1023.4 hPa ESE 1.4 km/h 1.6 km/h 81% 0.0 mm 0 W/m2
17:53 9.4 °C 6.3 °C 1023.4 hPa Calm     81% 0.0 mm 0 W/m2
17:58 9.4 °C 6.5 °C 1023.4 hPa Calm   1.6 km/h 82% 0.0 mm 0 W/m2
18:03 9.3 °C 6.4 °C 1023.4 hPa Calm     82% 0.0 mm 0 W/m2
18:08 9.3 °C 6.6 °C 1023.7 hPa SW 4.7 km/h 4.8 km/h 83% 0.0 mm 0 W/m2
18:13 9.3 °C 6.6 °C 1023.7 hPa West 3.2 km/h 6.4 km/h 83% 0.0 mm 0 W/m2
18:18 9.3 °C 6.4 °C 1023.7 hPa Calm   4.8 km/h 82% 0.0 mm 0 W/m2
18:23 9.2 °C 6.5 °C 1023.7 hPa Calm     83% 0.0 mm 0 W/m2
18:28 9.1 °C 6.4 °C 1024.0 hPa Calm   4.8 km/h 83% 0.0 mm 0 W/m2
18:33 8.8 °C 6.1 °C 1024.0 hPa Calm     83% 0.0 mm 0 W/m2
18:38 8.6 °C 6 °C 1024.0 hPa SW 1.4 km/h 3.2 km/h 84% 0.0 mm 0 W/m2
18:43 8.4 °C 6 °C 1024.4 hPa Calm     85% 0.0 mm 0 W/m2
18:48 8.3 °C 5.9 °C 1024.4 hPa Calm     85% 0.0 mm 0 W/m2
18:53 8.3 °C 6.1 °C 1024.4 hPa Calm     86% 0.0 mm 0 W/m2
18:58 8.2 °C 6 °C 1024.4 hPa Calm     86% 0.0 mm 0 W/m2
19:03 8.2 °C 6 °C 1024.4 hPa Calm     86% 0.0 mm 0 W/m2
19:09 8.1 °C 6.1 °C 1024.7 hPa Calm     87% 0.0 mm 0 W/m2
19:14 7.9 °C 5.9 °C 1024.7 hPa Calm     87% 0.0 mm 0 W/m2
19:19 7.8 °C 5.8 °C 1024.4 hPa SW 1.4 km/h 1.6 km/h 87% 0.0 mm 0 W/m2
19:24 7.7 °C 5.8 °C 1024.7 hPa Calm   1.6 km/h 88% 0.0 mm 0 W/m2
19:29 7.6 °C 5.7 °C 1024.7 hPa Calm     88% 0.0 mm 0 W/m2
19:34 7.4 °C 5.5 °C 1024.7 hPa Calm   1.6 km/h 88% 0.0 mm 0 W/m2
19:39 7.2 °C 5.3 °C 1024.7 hPa Calm     88% 0.0 mm 0 W/m2
19:44 7.1 °C 5.2 °C 1024.7 hPa Calm     88% 0.0 mm 0 W/m2
19:49 7 °C 5.3 °C 1024.7 hPa Calm     89% 0.0 mm 0 W/m2
19:54 6.8 °C 5.1 °C 1024.7 hPa Calm     89% 0.0 mm 0 W/m2
19:59 6.7 °C 5 °C 1024.7 hPa Calm     89% 0.0 mm 0 W/m2
20:04 6.6 °C 4.9 °C 1024.7 hPa Calm     89% 0.0 mm 0 W/m2
20:09 6.6 °C 5.1 °C 1024.7 hPa Calm     90% 0.0 mm 0 W/m2
20:14 6.6 °C 5.2 °C 1024.7 hPa Calm     91% 0.0 mm 0 W/m2
20:19 6.6 °C 5.2 °C 1025.1 hPa Calm     91% 0.0 mm 0 W/m2
20:24 6.7 °C 5.3 °C 1025.1 hPa South 3.2 km/h 3.2 km/h 91% 0.0 mm 0 W/m2
20:29 6.7 °C 5.3 °C 1025.1 hPa Calm     91% 0.0 mm 0 W/m2
20:34 6.7 °C 5.3 °C 1024.7 hPa Calm     91% 0.0 mm 0 W/m2
20:39 6.6 °C 5.2 °C 1025.1 hPa Calm     91% 0.0 mm 0 W/m2
20:44 6.5 °C 5.1 °C 1025.1 hPa Calm     91% 0.0 mm 0 W/m2
20:49 6.4 °C 5 °C 1025.1 hPa Calm     91% 0.0 mm 0 W/m2
20:54 6.3 °C 4.9 °C 1025.1 hPa Calm     91% 0.0 mm 0 W/m2
20:59 6.3 °C 4.9 °C 1025.1 hPa Calm     91% 0.0 mm 0 W/m2
21:04 6.1 °C 4.7 °C 1025.1 hPa Calm     91% 0.0 mm 0 W/m2
21:09 6.1 °C 4.7 °C 1025.4 hPa Calm     91% 0.0 mm 0 W/m2
21:15 5.9 °C 4.5 °C 1025.4 hPa Calm   1.6 km/h 91% 0.0 mm 0 W/m2
21:20 5.9 °C 4.7 °C 1025.4 hPa Calm     92% 0.0 mm 0 W/m2
21:25 5.9 °C 4.7 °C 1025.4 hPa Calm     92% 0.0 mm 0 W/m2
21:30 5.8 °C 4.6 °C 1025.4 hPa Calm     92% 0.0 mm 0 W/m2
21:35 5.8 °C 4.6 °C 1025.4 hPa Calm     92% 0.0 mm 0 W/m2
21:40 5.8 °C 4.6 °C 1025.4 hPa Calm     92% 0.0 mm 0 W/m2
21:45 5.8 °C 4.6 °C 1025.4 hPa Calm     92% 0.0 mm 0 W/m2
21:50 5.7 °C 4.7 °C 1025.4 hPa ESE 1.4 km/h 3.2 km/h 93% 0.0 mm 0 W/m2
21:55 5.8 °C 4.8 °C 1025.4 hPa Calm     93% 0.0 mm 0 W/m2
22:00 5.8 °C 4.8 °C 1025.4 hPa Calm     93% 0.0 mm 0 W/m2
22:05 5.8 °C 4.8 °C 1025.4 hPa Calm     93% 0.0 mm 0 W/m2
22:10 5.8 °C 4.8 °C 1025.4 hPa ESE 1.4 km/h 1.6 km/h 93% 0.0 mm 0 W/m2
22:15 5.8 °C 4.8 °C 1025.4 hPa Calm     93% 0.0 mm 0 W/m2
22:20 5.8 °C 4.8 °C 1025.4 hPa Calm   1.6 km/h 93% 0.0 mm 0 W/m2
22:25 5.8 °C 4.8 °C 1025.4 hPa Calm     93% 0.0 mm 0 W/m2
22:30 5.8 °C 4.8 °C 1025.4 hPa Calm   1.6 km/h 93% 0.0 mm 0 W/m2
22:35 5.8 °C 4.8 °C 1025.4 hPa Calm     93% 0.0 mm 0 W/m2
22:41 5.8 °C 4.8 °C 1025.1 hPa Calm     93% 0.0 mm 0 W/m2
22:46 5.9 °C 4.9 °C 1025.1 hPa Calm   3.2 km/h 93% 0.0 mm 0 W/m2
22:51 5.9 °C 5 °C 1025.1 hPa Calm     94% 0.0 mm 0 W/m2
22:56 5.9 °C 5 °C 1025.1 hPa Calm     94% 0.0 mm 0 W/m2
23:01 6 °C 5.1 °C 1025.1 hPa Calm     94% 0.0 mm 0 W/m2
23:06 6 °C 5.1 °C 1025.1 hPa Calm     94% 0.0 mm 0 W/m2
23:11 6.1 °C 5.2 °C 1025.1 hPa Calm     94% 0.0 mm 0 W/m2
23:16 6.1 °C 5.2 °C 1025.1 hPa Calm     94% 0.0 mm 0 W/m2
23:21 6.1 °C 5.2 °C 1025.1 hPa Calm     94% 0.0 mm 0 W/m2
23:26 6.2 °C 5.3 °C 1025.1 hPa Calm     94% 0.0 mm 0 W/m2
23:31 6.2 °C 5.3 °C 1025.1 hPa Calm     94% 0.0 mm 0 W/m2
23:36 6.2 °C 5.2 °C 1024.7 hPa ESE 1.4 km/h 3.2 km/h 93% 0.0 mm 0 W/m2
23:41 6.2 °C 5.2 °C 1024.7 hPa Calm     93% 0.0 mm 0 W/m2
23:46 6.3 °C 5.4 °C 1024.7 hPa Calm     94% 0.0 mm 0 W/m2
23:51 6.3 °C 5.3 °C 1024.7 hPa East 3.2 km/h 3.2 km/h 93% 0.0 mm 0 W/m2
23:56 6.4 °C 5.4 °C 1024.7 hPa Calm   1.6 km/h 93% 0.0 mm 0 W/m2
Juneau County Weather
Compliments of Weather Underground - 4 mb